Location: Newark
(51.7378°N, 19.8125°E)
Time: 06:49:54
(UTC+00:00)

Envisat - Pass Details

Date: 12 December 2019
Orbit: 764 x 766 km, 98.1° (Epoch: 20 January)

Event Time Altitude Azimuth Distance (km) Brightness Sun altitude
Rises 16:22:53 0° 164° (SSE) 3,223 6.2 -16.2°
Reaches altitude 10° 16:25:10 10° 164° (SSE) 2,301 5.5 -16.6°
Maximum altitude 16:30:15 88° 249° (WSW) 775 3.0 -17.3°
Drops below altitude 10° 16:35:23 10° 345° (NNW) 2,317 5.5 -18.1°
Sets 16:37:42 0° 346° (NNW) 3,248 6.3 -18.4°
